Change the Weather History Date:

Wednesday, February 26, 2014

  Actual Average Record
Temperature  
Mean Temperature 41 °F -  
Max Temperature 48 °F 54 °F 77 °F (1951)
Min Temperature 30 °F 30 °F 9 °F (1967)
Degree Days  
Heating Degree Days 24    
Moisture  
Dew Point 20 °F    
Average Humidity 46    
Maximum Humidity 60    
Minimum Humidity 33    
Precipitation  
Precipitation 0.00 in - - ()
Sea Level Pressure  
Sea Level Pressure 29.89 in    
Wind  
Wind Speed 5 mph (North)    
Max Wind Speed 10 mph    
Max Gust Speed 17 mph    
Visibility 10 miles    
Events      
Averages and records for this station are not official NWS values.
T = Trace of Precipitation, MM = Missing Value Source: NWS Daily Summary

Daily Weather History Graph

Daily Weather History Graph

Search for Another Location

Airport or City:

Trip Planner

Search our weather history database for the weather conditions in past years. The results will help you decide how hot, cold, wet, or windy it might be!

Date:

Astronomy

Feb. 26, 2014 Rise Set
Actual Time 6:50 AM EST 6:08 PM EST
Civil Twilight 6:24 AM EST 6:34 PM EST
Nautical Twilight 5:54 AM EST 7:04 PM EST
Astronomical Twilight 5:25 AM EST 7:33 PM EST
Moon 4:30 AM EST (2/26) 3:24 PM EST (2/26)
Length of Visible Light 12h 09m
Length of Day
11h 18m
Waning Crescent, 10% of the Moon is Illuminated
Feb 26
Waning Crescent
Mar 1
New
Mar 8
First Quarter
Mar 16
Full
Mar 23
Last Quarter

Hourly Weather History & Observations

Time (EST) Temp. Windchill Dew Point Humidity Pressure Visibility Wind Dir Wind Speed Gust Speed Precip Events Conditions
12:56 AM 37.9 °F 34.4 °F 19.0 °F 47% 29.97 in 10.0 mi NNE 4.6 mph - N/A   Overcast
1:56 AM 37.0 °F 31.6 °F 19.0 °F 48% 29.96 in 10.0 mi NE 6.9 mph - N/A   Overcast
2:56 AM 37.9 °F 34.4 °F 18.0 °F 45% 29.93 in 10.0 mi ENE 4.6 mph - N/A   Overcast
3:56 AM 37.0 °F 32.4 °F 19.0 °F 48% 29.92 in 10.0 mi NE 5.8 mph - N/A   Overcast
4:56 AM 37.0 °F 33.3 °F 19.0 °F 48% 29.91 in 10.0 mi NNE 4.6 mph - N/A   Overcast
5:56 AM 36.0 °F 31.1 °F 19.9 °F 52% 29.91 in 10.0 mi ENE 5.8 mph - N/A   Overcast
6:56 AM 36.0 °F 33.3 °F 21.0 °F 55% 29.95 in 10.0 mi North 3.5 mph - N/A   Overcast
7:56 AM 36.0 °F 33.3 °F 23.0 °F 59% 29.96 in 10.0 mi Variable 3.5 mph - N/A   Overcast
8:56 AM 37.9 °F - 25.0 °F 60% 29.97 in 10.0 mi Calm Calm - N/A   Overcast
9:56 AM 39.0 °F 36.8 °F 26.1 °F 60% 29.95 in 10.0 mi NW 3.5 mph - N/A   Overcast
10:56 AM 41.0 °F 37.1 °F 21.9 °F 47% 29.94 in 10.0 mi NNE 5.8 mph - N/A   Overcast
11:56 AM 41.0 °F 34.7 °F 19.9 °F 43% 29.91 in 10.0 mi NW 10.4 mph 17.3 mph N/A   Mostly Cloudy
12:56 PM 42.1 °F 38.4 °F 21.0 °F 43% 29.88 in 10.0 mi Variable 5.8 mph - N/A   Scattered Clouds
1:56 PM 46.0 °F 41.9 °F 21.9 °F 39% 29.83 in 10.0 mi NNE 8.1 mph - N/A   Clear
2:56 PM 46.9 °F - 21.0 °F 36% 29.80 in 10.0 mi NW 8.1 mph - N/A   Clear
3:56 PM 48.0 °F - 19.9 °F 33% 29.79 in 10.0 mi NNW 4.6 mph - N/A   Clear
4:56 PM 46.0 °F 42.5 °F 19.0 °F 34% 29.79 in 10.0 mi NNE 6.9 mph - N/A   Partly Cloudy
5:56 PM 43.0 °F - 19.9 °F 40% 29.79 in 10.0 mi Calm Calm - N/A   Clear
6:56 PM 41.0 °F 39.0 °F 21.0 °F 45% 29.82 in 10.0 mi NNW 3.5 mph - N/A   Clear
7:56 PM 39.9 °F 36.7 °F 18.0 °F 41% 29.83 in 10.0 mi NW 4.6 mph - N/A   Clear
8:56 PM 37.0 °F 33.3 °F 17.1 °F 44% 29.86 in 10.0 mi NW 4.6 mph - N/A   Clear
9:56 PM 35.1 °F 30.1 °F 15.1 °F 44% 29.87 in 10.0 mi NW 5.8 mph - N/A   Clear
10:56 PM 34.0 °F 28.8 °F 12.9 °F 42% 29.87 in 10.0 mi NW 5.8 mph - N/A   Clear
11:56 PM 30.9 °F 26.2 °F 12.9 °F 47% 29.86 in 10.0 mi WNW 4.6 mph - N/A   Clear